Time,TemperatureF,DewpointF,PressureIn,WindDirection,WindDirectionDegrees,WindSpeedMPH,WindSpeedGustMPH,Humidity,HourlyPrecipIn,Conditions,Clouds,dailyrainin,SoftwareType,DateUTC
2013-04-03 00:03:00,53.1,28.2,30.20,NE,42,0.0,0.0,38,0.00,,---,0.00,VWS V14.01,2013-04-03 04:03:00,
2013-04-03 00:08:00,52.8,27.9,30.20,NE,42,0.0,0.0,38,0.00,,---,0.00,VWS V14.01,2013-04-03 04:08:00,
2013-04-03 00:13:00,52.6,27.7,30.20,NE,42,0.0,0.0,38,0.00,,---,0.00,VWS V14.01,2013-04-03 04:13:00,
2013-04-03 00:18:00,52.6,29.6,30.20,NE,42,0.0,0.0,41,0.00,,---,0.00,VWS V14.01,2013-04-03 04:18:00,
2013-04-03 00:23:00,52.5,29.5,30.20,NE,42,0.0,0.0,41,0.00,,---,0.00,VWS V14.01,2013-04-03 04:23:00,
2013-04-03 00:28:00,52.3,27.5,30.20,NE,42,0.0,0.0,38,0.00,,---,0.00,VWS V14.01,2013-04-03 04:28:00,
2013-04-03 00:33:00,52.2,28.6,30.21,NE,42,0.0,0.0,40,0.00,,---,0.00,VWS V14.01,2013-04-03 04:33:00,
2013-04-03 00:38:00,52.0,27.2,30.21,NE,42,0.0,0.0,38,0.00,,---,0.00,VWS V14.01,2013-04-03 04:38:00,
2013-04-03 00:44:00,52.0,26.5,30.21,NE,42,0.0,0.0,37,0.00,,---,0.00,VWS V14.01,2013-04-03 04:44:00,
2013-04-03 00:49:00,51.9,19.0,30.22,NE,42,0.0,0.0,27,0.00,,---,0.00,VWS V14.01,2013-04-03 04:49:00,
2013-04-03 00:54:00,51.9,27.7,30.22,NE,42,0.0,0.0,39,0.00,,---,0.00,VWS V14.01,2013-04-03 04:54:00,
2013-04-03 00:59:00,51.9,21.5,30.22,NE,42,0.0,0.0,30,0.00,,---,0.00,VWS V14.01,2013-04-03 04:59:00,
2013-04-03 01:04:00,51.7,22.1,30.22,NE,42,0.0,0.0,31,0.00,,---,0.00,VWS V14.01,2013-04-03 05:04:00,
2013-04-03 01:09:00,51.7,26.3,30.22,NE,42,0.0,0.0,37,0.00,,---,0.00,VWS V14.01,2013-04-03 05:09:00,
2013-04-03 01:14:00,51.7,26.9,30.22,NE,42,0.0,0.0,38,0.00,,---,0.00,VWS V14.01,2013-04-03 05:14:00,
2013-04-03 01:19:00,51.6,31.5,30.22,NE,42,0.0,0.0,46,0.00,,---,0.00,VWS V14.01,2013-04-03 05:19:00,
2013-04-03 01:24:00,51.4,26.7,30.22,NE,42,0.0,0.0,38,0.00,,---,0.00,VWS V14.01,2013-04-03 05:24:00,
2013-04-03 01:29:00,51.4,26.7,30.22,NE,42,0.0,0.0,38,0.00,,---,0.00,VWS V14.01,2013-04-03 05:29:00,
2013-04-03 01:34:00,51.3,22.5,30.23,NE,42,0.0,0.0,32,0.00,,---,0.00,VWS V14.01,2013-04-03 05:34:00,
2013-04-03 01:39:00,51.3,21.7,30.23,NE,42,0.0,0.0,31,0.00,,---,0.00,VWS V14.01,2013-04-03 05:39:00,
2013-04-03 01:44:00,51.3,22.5,30.23,NE,42,0.0,0.0,32,0.00,,---,0.00,VWS V14.01,2013-04-03 05:44:00,
2013-04-03 01:49:00,51.3,23.2,30.23,NE,42,0.0,0.0,33,0.00,,---,0.00,VWS V14.01,2013-04-03 05:49:00,
2013-04-03 01:54:00,51.3,18.5,30.23,NE,42,0.0,0.0,27,0.00,,---,0.00,VWS V14.01,2013-04-03 05:54:00,
2013-04-03 01:59:00,51.4,26.0,30.23,NE,42,0.0,0.0,37,0.00,,---,0.00,VWS V14.01,2013-04-03 05:59:00,
2013-04-03 02:04:00,51.4,17.7,30.24,NE,42,0.0,0.0,26,0.00,,---,0.00,VWS V14.01,2013-04-03 06:04:00,
2013-04-03 02:09:00,51.4,18.6,30.24,NE,42,0.0,0.0,27,0.00,,---,0.00,VWS V14.01,2013-04-03 06:09:00,
2013-04-03 02:14:00,51.4,22.5,30.24,NE,42,0.0,0.0,32,0.00,,---,0.00,VWS V14.01,2013-04-03 06:14:00,
2013-04-03 02:19:00,51.4,19.4,30.24,NE,42,0.0,0.0,28,0.00,,---,0.00,VWS V14.01,2013-04-03 06:19:00,
2013-04-03 02:24:00,51.3,25.9,30.24,NE,42,0.0,0.0,37,0.00,,---,0.00,VWS V14.01,2013-04-03 06:24:00,
2013-04-03 02:29:00,51.3,24.6,30.24,NE,42,0.0,0.0,35,0.00,,---,0.00,VWS V14.01,2013-04-03 06:29:00,
2013-04-03 02:34:00,51.3,23.2,30.24,NE,42,0.0,0.0,33,0.00,,---,0.00,VWS V14.01,2013-04-03 06:34:00,
2013-04-03 02:39:00,51.3,21.7,30.24,NE,52,0.0,3.0,31,0.00,,---,0.00,VWS V14.01,2013-04-03 06:39:00,
2013-04-03 02:44:00,51.3,17.6,30.24,NE,35,0.0,1.0,26,0.00,,---,0.00,VWS V14.01,2013-04-03 06:44:00,
2013-04-03 02:48:00,51.3,25.9,30.23,NE,35,0.0,0.0,37,0.00,,---,0.00,VWS V14.01,2013-04-03 06:48:00,
2013-04-03 02:53:00,51.1,18.3,30.23,NNE,23,0.0,3.0,27,0.00,,---,0.00,VWS V14.01,2013-04-03 06:53:00,
2013-04-03 02:59:00,51.1,18.3,30.23,NE,52,0.0,3.0,27,0.00,,---,0.00,VWS V14.01,2013-04-03 06:59:00,
2013-04-03 03:03:00,51.1,16.5,30.23,NE,48,0.0,1.0,25,0.00,,---,0.00,VWS V14.01,2013-04-03 07:03:00,
2013-04-03 03:09:00,51.1,18.3,30.23,NE,48,0.0,0.0,27,0.00,,---,0.00,VWS V14.01,2013-04-03 07:09:00,
2013-04-03 03:13:00,51.1,18.3,30.23,NE,48,0.0,0.0,27,0.00,,---,0.00,VWS V14.01,2013-04-03 07:13:00,
2013-04-03 03:19:00,51.0,19.9,30.23,NE,48,0.0,0.0,29,0.00,,---,0.00,VWS V14.01,2013-04-03 07:19:00,
2013-04-03 03:23:00,51.0,19.9,30.23,NE,48,0.0,0.0,29,0.00,,---,0.00,VWS V14.01,2013-04-03 07:23:00,
2013-04-03 03:28:00,51.0,19.9,30.23,NE,51,0.0,0.0,29,0.00,,---,0.00,VWS V14.01,2013-04-03 07:28:00,
2013-04-03 03:34:00,51.0,19.1,30.22,NE,51,0.0,0.0,28,0.00,,---,0.00,VWS V14.01,2013-04-03 07:34:00,
2013-04-03 03:39:00,50.8,19.7,30.22,NE,35,0.0,1.0,29,0.00,,---,0.00,VWS V14.01,2013-04-03 07:39:00,
2013-04-03 03:44:00,50.8,20.5,30.22,NE,35,0.0,1.0,30,0.00,,---,0.00,VWS V14.01,2013-04-03 07:44:00,
2013-04-03 03:49:00,50.7,17.1,30.22,NE,38,0.0,0.0,26,0.00,,---,0.00,VWS V14.01,2013-04-03 07:49:00,
2013-04-03 03:54:00,50.7,18.8,30.22,ENE,68,0.0,2.0,28,0.00,,---,0.00,VWS V14.01,2013-04-03 07:54:00,
2013-04-03 03:59:00,50.7,16.2,30.22,NE,41,0.0,2.0,25,0.00,,---,0.00,VWS V14.01,2013-04-03 07:59:00,
2013-04-03 04:04:00,50.5,15.1,30.22,NNE,30,1.0,2.0,24,0.00,,---,0.00,VWS V14.01,2013-04-03 08:04:00,
2013-04-03 04:09:00,50.4,15.0,30.22,NE,51,0.0,0.0,24,0.00,,---,0.00,VWS V14.01,2013-04-03 08:09:00,
2013-04-03 04:14:00,50.2,13.9,30.22,NE,35,0.0,3.0,23,0.00,,---,0.00,VWS V14.01,2013-04-03 08:14:00,
2013-04-03 04:19:00,49.9,12.6,30.23,NNE,30,0.0,1.0,22,0.00,,---,0.00,VWS V14.01,2013-04-03 08:19:00,
2013-04-03 04:24:00,49.9,11.5,30.23,NE,35,0.0,5.0,21,0.00,,---,0.00,VWS V14.01,2013-04-03 08:24:00,
2013-04-03 04:29:00,49.8,11.4,30.23,NE,35,0.0,1.0,21,0.00,,---,0.00,VWS V14.01,2013-04-03 08:29:00,
2013-04-03 04:34:00,49.6,11.3,30.23,NE,44,0.0,4.0,21,0.00,,---,0.00,VWS V14.01,2013-04-03 08:34:00,
2013-04-03 04:39:00,49.6,11.3,30.23,NNE,21,0.0,7.0,21,0.00,,---,0.00,VWS V14.01,2013-04-03 08:39:00,
2013-04-03 04:44:00,49.5,15.1,30.23,NE,54,0.0,1.0,25,0.00,,---,0.00,VWS V14.01,2013-04-03 08:44:00,
2013-04-03 04:49:00,49.4,13.2,30.23,NE,54,0.0,0.0,23,0.00,,---,0.00,VWS V14.01,2013-04-03 08:49:00,
2013-04-03 04:54:00,49.2,12.0,30.23,NE,52,0.0,3.0,22,0.00,,---,0.00,VWS V14.01,2013-04-03 08:54:00,
2013-04-03 04:59:00,49.1,12.9,30.23,NE,51,0.0,2.0,23,0.00,,---,0.00,VWS V14.01,2013-04-03 08:59:00,
2013-04-03 05:04:00,49.1,10.9,30.23,North,8,0.0,2.0,21,0.00,,---,0.00,VWS V14.01,2013-04-03 09:04:00,
2013-04-03 05:09:00,48.9,15.5,30.23,NE,34,0.0,2.0,26,0.00,,---,0.00,VWS V14.01,2013-04-03 09:09:00,
2013-04-03 05:14:00,48.9,12.8,30.23,NE,34,0.0,2.0,23,0.00,,---,0.00,VWS V14.01,2013-04-03 09:14:00,
2013-04-03 05:19:00,48.8,14.6,30.24,NE,44,0.0,1.0,25,0.00,,---,0.00,VWS V14.01,2013-04-03 09:19:00,
2013-04-03 05:24:00,48.6,13.5,30.24,NE,41,0.0,1.0,24,0.00,,---,0.00,VWS V14.01,2013-04-03 09:24:00,
2013-04-03 05:29:00,48.5,12.4,30.24,NE,39,0.0,1.0,23,0.00,,---,0.00,VWS V14.01,2013-04-03 09:29:00,
2013-04-03 05:34:00,48.3,13.2,30.24,NE,39,0.0,3.0,24,0.00,,---,0.00,VWS V14.01,2013-04-03 09:34:00,
2013-04-03 05:39:00,48.2,11.1,30.24,NNE,21,0.0,5.0,22,0.00,,---,0.00,VWS V14.01,2013-04-03 09:39:00,
2013-04-03 05:44:00,47.9,12.9,30.24,NNE,27,0.0,2.0,24,0.00,,---,0.00,VWS V14.01,2013-04-03 09:44:00,
2013-04-03 05:49:00,47.6,10.6,30.24,NE,51,0.0,1.0,22,0.00,,---,0.00,VWS V14.01,2013-04-03 09:49:00,
2013-04-03 05:54:00,47.3,12.4,30.24,NE,51,0.0,1.0,24,0.00,,---,0.00,VWS V14.01,2013-04-03 09:54:00,
2013-04-03 05:59:00,46.8,11.0,30.24,NNE,28,0.0,2.0,23,0.00,,---,0.00,VWS V14.01,2013-04-03 09:59:00,
2013-04-03 06:04:00,46.5,11.7,30.25,NE,51,0.0,2.0,24,0.00,,---,0.00,VWS V14.01,2013-04-03 10:04:00,
2013-04-03 06:09:00,46.2,13.2,30.25,North,350,1.0,4.0,26,0.00,,---,0.00,VWS V14.01,2013-04-03 10:09:00,
2013-04-03 06:14:00,46.1,13.1,30.25,NNE,31,0.0,4.0,26,0.00,,---,0.00,VWS V14.01,2013-04-03 10:14:00,
2013-04-03 06:19:00,46.0,13.1,30.26,NNE,31,0.0,1.0,26,0.00,,---,0.00,VWS V14.01,2013-04-03 10:19:00,
2013-04-03 06:24:00,45.8,11.1,30.26,NNE,31,0.0,0.0,24,0.00,,---,0.00,VWS V14.01,2013-04-03 10:24:00,
2013-04-03 06:29:00,45.7,10.0,30.26,NNE,31,0.0,1.0,23,0.00,,---,0.00,VWS V14.01,2013-04-03 10:29:00,
2013-04-03 06:34:00,45.5,10.8,30.27,NNE,28,0.0,0.0,24,0.00,,---,0.00,VWS V14.01,2013-04-03 10:34:00,
2013-04-03 06:39:00,45.4,10.7,30.27,NE,42,0.0,2.0,24,0.00,,---,0.00,VWS V14.01,2013-04-03 10:39:00,
2013-04-03 06:44:00,45.2,10.6,30.27,NE,41,0.0,1.0,24,0.00,,---,0.00,VWS V14.01,2013-04-03 10:44:00,
2013-04-03 06:49:00,45.2,11.5,30.29,NNE,13,0.0,1.0,25,0.00,,---,0.00,VWS V14.01,2013-04-03 10:49:00,
2013-04-03 06:54:00,45.2,10.6,30.29,ENE,62,1.0,3.0,24,0.00,,---,0.00,VWS V14.01,2013-04-03 10:54:00,
2013-04-03 06:59:00,45.2,12.4,30.29,NE,39,0.0,0.0,26,0.00,,---,0.00,VWS V14.01,2013-04-03 10:59:00,
2013-04-03 07:04:00,45.1,11.4,30.30,NE,39,0.0,0.0,25,0.00,,---,0.00,VWS V14.01,2013-04-03 11:04:00,
2013-04-03 07:09:00,44.9,11.2,30.30,NE,39,0.0,0.0,25,0.00,,---,0.00,VWS V14.01,2013-04-03 11:09:00,
2013-04-03 07:14:00,44.8,14.5,30.30,NE,39,0.0,0.0,29,0.00,,---,0.00,VWS V14.01,2013-04-03 11:14:00,
2013-04-03 07:19:00,44.6,12.7,30.31,NE,39,0.0,0.0,27,0.00,,---,0.00,VWS V14.01,2013-04-03 11:19:00,
2013-04-03 07:24:00,44.3,10.7,30.31,NE,39,0.0,0.0,25,0.00,,---,0.00,VWS V14.01,2013-04-03 11:24:00,
2013-04-03 07:29:00,44.1,12.3,30.31,NE,39,0.0,0.0,27,0.00,,---,0.00,VWS V14.01,2013-04-03 11:29:00,
2013-04-03 07:34:00,43.9,13.7,30.32,NE,39,0.0,0.0,29,0.00,,---,0.00,VWS V14.01,2013-04-03 11:34:00,
2013-04-03 07:39:00,43.6,13.5,30.32,NE,39,0.0,0.0,29,0.00,,---,0.00,VWS V14.01,2013-04-03 11:39:00,
2013-04-03 07:44:00,43.5,15.6,30.32,NE,39,0.0,0.0,32,0.00,,---,0.00,VWS V14.01,2013-04-03 11:44:00,
2013-04-03 07:49:00,43.3,14.7,30.32,NE,39,0.0,0.0,31,0.00,,---,0.00,VWS V14.01,2013-04-03 11:49:00,
2013-04-03 07:54:00,43.2,10.6,30.32,NE,39,0.0,0.0,26,0.00,,---,0.00,VWS V14.01,2013-04-03 11:54:00,
2013-04-03 07:59:00,43.2,14.6,30.32,NE,39,0.0,1.0,31,0.00,,---,0.00,VWS V14.01,2013-04-03 11:59:00,
2013-04-03 08:04:00,43.3,12.4,30.34,NE,39,0.0,0.0,28,0.00,,---,0.00,VWS V14.01,2013-04-03 12:04:00,
2013-04-03 08:09:00,43.5,13.4,30.34,NE,39,0.0,0.0,29,0.00,,---,0.00,VWS V14.01,2013-04-03 12:09:00,
2013-04-03 08:14:00,43.5,15.6,30.34,NE,39,0.0,1.0,32,0.00,,---,0.00,VWS V14.01,2013-04-03 12:14:00,
2013-04-03 08:19:00,43.8,11.2,30.35,ESE,123,0.0,1.0,26,0.00,,---,0.00,VWS V14.01,2013-04-03 12:19:00,
2013-04-03 08:24:00,43.9,11.2,30.35,South,186,0.0,2.0,26,0.00,,---,0.00,VWS V14.01,2013-04-03 12:24:00,
2013-04-03 08:29:00,44.2,17.6,30.35,NE,39,1.0,4.0,34,0.00,,---,0.00,VWS V14.01,2013-04-03 12:29:00,
2013-04-03 08:34:00,44.3,11.6,30.36,NE,48,0.0,1.0,26,0.00,,---,0.00,VWS V14.01,2013-04-03 12:34:00,
2013-04-03 08:39:00,44.6,10.1,30.36,NNE,20,0.0,2.0,24,0.00,,---,0.00,VWS V14.01,2013-04-03 12:39:00,
2013-04-03 08:44:00,45.1,12.3,30.36,NE,56,0.0,5.0,26,0.00,,---,0.00,VWS V14.01,2013-04-03 12:44:00,
2013-04-03 08:49:00,45.2,12.4,30.36,NE,48,0.0,1.0,26,0.00,,---,0.00,VWS V14.01,2013-04-03 12:49:00,
2013-04-03 08:54:00,45.7,12.8,30.36,ENE,75,0.0,2.0,26,0.00,,---,0.00,VWS V14.01,2013-04-03 12:54:00,
2013-04-03 08:59:00,45.8,12.9,30.36,NE,38,0.0,5.0,26,0.00,,---,0.00,VWS V14.01,2013-04-03 12:59:00,
2013-04-03 09:04:00,46.1,11.3,30.36,NE,48,0.0,2.0,24,0.00,,---,0.00,VWS V14.01,2013-04-03 13:04:00,
2013-04-03 09:09:00,46.2,12.3,30.36,ENE,61,0.0,1.0,25,0.00,,---,0.00,VWS V14.01,2013-04-03 13:09:00,
2013-04-03 09:14:00,46.7,11.8,30.36,NE,52,0.0,8.0,24,0.00,,---,0.00,VWS V14.01,2013-04-03 13:14:00,
2013-04-03 09:19:00,46.8,13.7,30.37,ENE,76,0.0,3.0,26,0.00,,---,0.00,VWS V14.01,2013-04-03 13:19:00,
2013-04-03 09:24:00,47.1,14.0,30.37,NE,44,5.0,5.0,26,0.00,,---,0.00,VWS V14.01,2013-04-03 13:24:00,
2013-04-03 09:29:00,47.3,11.4,30.37,NE,37,1.0,6.0,23,0.00,,---,0.00,VWS V14.01,2013-04-03 13:29:00,
2013-04-03 09:34:00,47.6,8.5,30.37,North,11,0.0,5.0,20,0.00,,---,0.00,VWS V14.01,2013-04-03 13:34:00,
2013-04-03 09:39:00,47.9,10.9,30.37,NNE,13,2.0,6.0,22,0.00,,---,0.00,VWS V14.01,2013-04-03 13:39:00,
2013-04-03 09:44:00,48.0,9.9,30.37,NNE,13,0.0,3.0,21,0.00,,---,0.00,VWS V14.01,2013-04-03 13:44:00,
2013-04-03 09:49:00,48.3,14.1,30.36,NNE,27,0.0,2.0,25,0.00,,---,0.00,VWS V14.01,2013-04-03 13:49:00,
2013-04-03 09:54:00,48.8,11.7,30.36,NE,52,0.0,3.0,22,0.00,,---,0.00,VWS V14.01,2013-04-03 13:54:00,
2013-04-03 09:59:00,49.1,11.9,30.36,ENE,62,1.0,2.0,22,0.00,,---,0.00,VWS V14.01,2013-04-03 13:59:00,
2013-04-03 10:03:00,49.4,11.1,30.35,East,79,0.0,1.0,21,0.00,,---,0.00,VWS V14.01,2013-04-03 14:03:00,
2013-04-03 10:08:00,49.2,10.9,30.35,NNE,17,0.0,7.0,21,0.00,,---,0.00,VWS V14.01,2013-04-03 14:08:00,
2013-04-03 10:14:00,49.2,12.0,30.35,NNE,25,2.0,7.0,22,0.00,,---,0.00,VWS V14.01,2013-04-03 14:14:00,
2013-04-03 10:19:00,49.5,13.2,30.35,NE,44,0.0,2.0,23,0.00,,---,0.00,VWS V14.01,2013-04-03 14:19:00,
2013-04-03 10:23:00,49.8,16.3,30.35,NNE,25,1.0,2.0,26,0.00,,---,0.00,VWS V14.01,2013-04-03 14:23:00,
2013-04-03 10:28:00,50.1,9.5,30.35,ENE,61,1.0,5.0,19,0.00,,---,0.00,VWS V14.01,2013-04-03 14:28:00,
2013-04-03 10:33:00,50.2,7.1,30.35,NNE,25,4.0,5.0,17,0.00,,---,0.00,VWS V14.01,2013-04-03 14:33:00,
2013-04-03 10:38:00,50.1,9.5,30.35,NE,39,0.0,7.0,19,0.00,,---,0.00,VWS V14.01,2013-04-03 14:38:00,
2013-04-03 10:44:00,50.5,13.1,30.35,NE,47,0.0,3.0,22,0.00,,---,0.00,VWS V14.01,2013-04-03 14:44:00,
2013-04-03 10:48:00,50.8,15.3,30.36,ENE,63,1.0,3.0,24,0.00,,---,0.00,VWS V14.01,2013-04-03 14:48:00,
2013-04-03 10:54:00,51.3,11.6,30.36,ENE,63,1.0,3.0,20,0.00,,---,0.00,VWS V14.01,2013-04-03 14:54:00,
2013-04-03 10:59:00,51.6,13.0,30.36,South,186,0.0,2.0,21,0.00,,---,0.00,VWS V14.01,2013-04-03 14:59:00,
2013-04-03 11:04:00,52.2,17.5,30.35,NNE,14,0.0,3.0,25,0.00,,---,0.00,VWS V14.01,2013-04-03 15:04:00,
2013-04-03 11:08:00,52.5,17.7,30.35,North,1,2.0,3.0,25,0.00,,---,0.00,VWS V14.01,2013-04-03 15:08:00,
2013-04-03 11:13:00,52.6,17.8,30.35,NE,51,0.0,3.0,25,0.00,,---,0.00,VWS V14.01,2013-04-03 15:13:00,
2013-04-03 11:18:00,52.0,13.3,30.35,NE,35,3.0,6.0,21,0.00,,---,0.00,VWS V14.01,2013-04-03 15:18:00,
2013-04-03 11:24:00,52.2,18.4,30.35,NE,42,0.0,6.0,26,0.00,,---,0.00,VWS V14.01,2013-04-03 15:24:00,
2013-04-03 11:29:00,52.8,18.0,30.35,NE,55,2.0,2.0,25,0.00,,---,0.00,VWS V14.01,2013-04-03 15:29:00,
2013-04-03 11:34:00,53.2,13.2,30.35,North,4,0.0,3.0,20,0.00,,---,0.00,VWS V14.01,2013-04-03 15:34:00,
2013-04-03 11:39:00,53.5,11.1,30.35,NE,55,0.0,2.0,18,0.00,,---,0.00,VWS V14.01,2013-04-03 15:39:00,
2013-04-03 11:44:00,53.5,14.6,30.35,NE,35,3.0,4.0,21,0.00,,---,0.00,VWS V14.01,2013-04-03 15:44:00,
2013-04-03 11:49:00,53.6,13.5,30.35,NNE,14,2.0,7.0,20,0.00,,---,0.00,VWS V14.01,2013-04-03 15:49:00,
2013-04-03 11:54:00,54.2,10.4,30.35,South,169,0.0,2.0,17,0.00,,---,0.00,VWS V14.01,2013-04-03 15:54:00,
2013-04-03 11:59:00,55.0,16.9,30.35,NNE,18,2.0,2.0,22,0.00,,---,0.00,VWS V14.01,2013-04-03 15:59:00,
2013-04-03 12:04:00,55.4,15.0,30.35,ENE,59,0.0,3.0,20,0.00,,---,0.00,VWS V14.01,2013-04-03 16:04:00,
2013-04-03 12:09:00,55.3,9.9,30.35,SSW,202,0.0,4.0,16,0.00,,---,0.00,VWS V14.01,2013-04-03 16:09:00,
2013-04-03 12:14:00,55.4,12.6,30.35,NE,49,0.0,3.0,18,0.00,,---,0.00,VWS V14.01,2013-04-03 16:14:00,
2013-04-03 12:19:00,56.2,13.3,30.35,SSE,152,0.0,2.0,18,0.00,,---,0.00,VWS V14.01,2013-04-03 16:19:00,
2013-04-03 12:25:00,55.7,8.8,30.35,ENE,75,0.0,2.0,15,0.00,,---,0.00,VWS V14.01,2013-04-03 16:25:00,
2013-04-03 12:30:00,56.3,21.0,30.33,South,179,0.0,2.0,25,0.00,,---,0.00,VWS V14.01,2013-04-03 16:30:00,
2013-04-03 12:35:00,56.7,16.1,30.33,NE,39,1.0,7.0,20,0.00,,---,0.00,VWS V14.01,2013-04-03 16:35:00,
2013-04-03 12:40:00,57.0,15.2,30.33,East,99,0.0,5.0,19,0.00,,---,0.00,VWS V14.01,2013-04-03 16:40:00,
2013-04-03 12:45:00,57.0,13.9,30.33,South,181,0.0,6.0,18,0.00,,---,0.00,VWS V14.01,2013-04-03 16:45:00,
2013-04-03 12:50:00,57.5,13.1,30.33,ENE,63,0.0,3.0,17,0.00,,---,0.00,VWS V14.01,2013-04-03 16:50:00,
2013-04-03 12:55:00,57.5,19.0,30.33,South,179,0.0,2.0,22,0.00,,---,0.00,VWS V14.01,2013-04-03 16:55:00,
2013-04-03 13:00:00,58.1,19.5,30.32,NE,52,2.0,3.0,22,0.00,,---,0.00,VWS V14.01,2013-04-03 17:00:00,
2013-04-03 13:05:00,58.6,16.5,30.32,ENE,58,0.0,3.0,19,0.00,,---,0.00,VWS V14.01,2013-04-03 17:05:00,
2013-04-03 13:10:00,58.3,13.7,30.32,North,11,0.0,5.0,17,0.00,,---,0.00,VWS V14.01,2013-04-03 17:10:00,
2013-04-03 13:15:00,58.9,17.9,30.32,SE,128,0.0,2.0,20,0.00,,---,0.00,VWS V14.01,2013-04-03 17:15:00,
2013-04-03 13:20:00,59.5,14.7,30.32,NE,42,0.0,1.0,17,0.00,,---,0.00,VWS V14.01,2013-04-03 17:20:00,
2013-04-03 13:25:00,59.5,10.3,30.32,NE,38,2.0,3.0,14,0.00,,---,0.00,VWS V14.01,2013-04-03 17:25:00,
2013-04-03 13:30:00,59.2,18.2,30.31,ENE,76,2.0,5.0,20,0.00,,---,0.00,VWS V14.01,2013-04-03 17:30:00,
2013-04-03 13:35:00,59.6,14.8,30.31,NE,37,0.0,2.0,17,0.00,,---,0.00,VWS V14.01,2013-04-03 17:35:00,
2013-04-03 13:40:00,60.1,24.2,30.31,NE,44,1.0,1.0,25,0.00,,---,0.00,VWS V14.01,2013-04-03 17:40:00,
2013-04-03 13:45:00,60.2,16.6,30.31,NE,51,0.0,3.0,18,0.00,,---,0.00,VWS V14.01,2013-04-03 17:45:00,
2013-04-03 13:50:00,60.1,18.9,30.31,ENE,72,1.0,1.0,20,0.00,,---,0.00,VWS V14.01,2013-04-03 17:50:00,
2013-04-03 13:55:00,59.9,19.9,30.31,NNE,31,0.0,2.0,21,0.00,,---,0.00,VWS V14.01,2013-04-03 17:55:00,
2013-04-03 14:00:00,59.6,18.5,30.30,South,178,0.0,5.0,20,0.00,,---,0.00,VWS V14.01,2013-04-03 18:00:00,
2013-04-03 14:05:00,59.3,11.7,30.30,SW,229,0.0,5.0,15,0.00,,---,0.00,VWS V14.01,2013-04-03 18:05:00,
2013-04-03 14:10:00,59.9,16.3,30.30,ESE,123,0.0,2.0,18,0.00,,---,0.00,VWS V14.01,2013-04-03 18:10:00,
2013-04-03 14:15:00,60.4,14.0,30.29,NE,45,3.0,6.0,16,0.00,,---,0.00,VWS V14.01,2013-04-03 18:15:00,
2013-04-03 14:20:00,60.2,17.8,30.29,NNE,32,2.0,3.0,19,0.00,,---,0.00,VWS V14.01,2013-04-03 18:20:00,
2013-04-03 14:25:00,60.7,23.7,30.29,ENE,72,0.0,2.0,24,0.00,,---,0.00,VWS V14.01,2013-04-03 18:25:00,
2013-04-03 14:30:00,60.7,12.8,30.29,NE,47,0.0,1.0,15,0.00,,---,0.00,VWS V14.01,2013-04-03 18:30:00,
2013-04-03 14:35:00,60.9,14.4,30.29,SSE,162,0.0,6.0,16,0.00,,---,0.00,VWS V14.01,2013-04-03 18:35:00,
2013-04-03 14:40:00,60.9,17.1,30.29,WNW,303,0.0,4.0,18,0.00,,---,0.00,VWS V14.01,2013-04-03 18:40:00,
2013-04-03 14:45:00,61.2,18.6,30.28,West,268,0.0,1.0,19,0.00,,---,0.00,VWS V14.01,2013-04-03 18:45:00,
2013-04-03 14:50:00,61.5,14.9,30.28,WSW,239,0.0,3.0,16,0.00,,---,0.00,VWS V14.01,2013-04-03 18:50:00,
2013-04-03 14:55:00,61.8,10.5,30.28,ENE,63,0.0,2.0,13,0.00,,---,0.00,VWS V14.01,2013-04-03 18:55:00,
2013-04-03 15:00:00,62.1,13.9,30.28,NE,37,1.0,3.0,15,0.00,,---,0.00,VWS V14.01,2013-04-03 19:00:00,
2013-04-03 15:05:00,61.0,14.5,30.28,NE,49,0.0,5.0,16,0.00,,---,0.00,VWS V14.01,2013-04-03 19:05:00,
2013-04-03 15:10:00,61.2,14.7,30.28,NE,49,0.0,0.0,16,0.00,,---,0.00,VWS V14.01,2013-04-03 19:10:00,
2013-04-03 15:15:00,61.2,14.7,30.29,North,351,0.0,2.0,16,0.00,,---,0.00,VWS V14.01,2013-04-03 19:15:00,
2013-04-03 15:20:00,60.5,11.1,30.29,SSE,155,0.0,0.0,14,0.00,,---,0.00,VWS V14.01,2013-04-03 19:20:00,
2013-04-03 15:25:00,61.2,25.1,30.29,ENE,61,0.0,2.0,25,0.00,,---,0.00,VWS V14.01,2013-04-03 19:25:00,
2013-04-03 15:30:00,60.9,17.1,30.28,NNE,30,0.0,0.0,18,0.00,,---,0.00,VWS V14.01,2013-04-03 19:30:00,
2013-04-03 15:35:00,60.9,13.0,30.28,SSE,165,0.0,0.0,15,0.00,,---,0.00,VWS V14.01,2013-04-03 19:35:00,
2013-04-03 15:40:00,61.2,19.8,30.28,NE,37,0.0,2.0,20,0.00,,---,0.00,VWS V14.01,2013-04-03 19:40:00,
2013-04-03 15:45:00,61.3,17.5,30.28,NE,54,0.0,0.0,18,0.00,,---,0.00,VWS V14.01,2013-04-03 19:45:00,
2013-04-03 15:50:00,61.2,14.7,30.28,South,174,0.0,0.0,16,0.00,,---,0.00,VWS V14.01,2013-04-03 19:50:00,
2013-04-03 15:55:00,61.5,18.9,30.28,ENE,72,0.0,0.0,19,0.00,,---,0.00,VWS V14.01,2013-04-03 19:55:00,
2013-04-03 16:00:00,61.6,15.0,30.28,NNE,14,1.0,2.0,16,0.00,,---,0.00,VWS V14.01,2013-04-03 20:00:00,
2013-04-03 16:05:00,61.8,15.2,30.28,NNE,14,0.0,1.0,16,0.00,,---,0.00,VWS V14.01,2013-04-03 20:05:00,
2013-04-03 16:10:00,61.5,16.3,30.28,NE,52,1.0,1.0,17,0.00,,---,0.00,VWS V14.01,2013-04-03 20:10:00,
2013-04-03 16:15:00,61.3,17.5,30.28,NE,47,0.0,0.0,18,0.00,,---,0.00,VWS V14.01,2013-04-03 20:15:00,
2013-04-03 16:20:00,60.9,11.4,30.28,SW,226,0.0,0.0,14,0.00,,---,0.00,VWS V14.01,2013-04-03 20:20:00,
2013-04-03 16:25:00,61.2,16.1,30.28,NNE,17,0.0,0.0,17,0.00,,---,0.00,VWS V14.01,2013-04-03 20:25:00,
2013-04-03 16:30:00,61.3,23.2,30.27,NNW,332,0.0,1.0,23,0.00,,---,0.00,VWS V14.01,2013-04-03 20:30:00,
2013-04-03 16:35:00,61.0,13.0,30.27,NNE,14,1.0,1.0,15,0.00,,---,0.00,VWS V14.01,2013-04-03 20:35:00,
2013-04-03 16:40:00,61.0,15.9,30.27,ENE,72,2.0,2.0,17,0.00,,---,0.00,VWS V14.01,2013-04-03 20:40:00,
2013-04-03 16:45:00,61.0,13.0,30.28,SSW,198,0.0,1.0,15,0.00,,---,0.00,VWS V14.01,2013-04-03 20:45:00,
2013-04-03 16:50:00,60.9,14.4,30.28,NE,51,0.0,0.0,16,0.00,,---,0.00,VWS V14.01,2013-04-03 20:50:00,
2013-04-03 16:55:00,61.0,19.7,30.28,WNW,292,0.0,0.0,20,0.00,,---,0.00,VWS V14.01,2013-04-03 20:55:00,
2013-04-03 17:00:00,61.0,13.0,30.28,NNE,28,0.0,0.0,15,0.00,,---,0.00,VWS V14.01,2013-04-03 21:00:00,
2013-04-03 17:05:00,61.0,19.7,30.28,SE,135,0.0,0.0,20,0.00,,---,0.00,VWS V14.01,2013-04-03 21:05:00,
2013-04-03 17:10:00,60.9,11.4,30.28,NE,39,2.0,2.0,14,0.00,,---,0.00,VWS V14.01,2013-04-03 21:10:00,
2013-04-03 17:15:00,60.2,13.9,30.28,NE,48,1.0,1.0,16,0.00,,---,0.00,VWS V14.01,2013-04-03 21:15:00,
2013-04-03 17:20:00,60.2,16.6,30.28,NE,47,0.0,0.0,18,0.00,,---,0.00,VWS V14.01,2013-04-03 21:20:00,
2013-04-03 17:25:00,60.1,13.8,30.28,NW,306,0.0,0.0,16,0.00,,---,0.00,VWS V14.01,2013-04-03 21:25:00,
2013-04-03 17:30:00,59.9,12.2,30.29,NE,54,0.0,0.0,15,0.00,,---,0.00,VWS V14.01,2013-04-03 21:30:00,
2013-04-03 17:35:00,59.8,14.9,30.29,NE,34,2.0,2.0,17,0.00,,---,0.00,VWS V14.01,2013-04-03 21:35:00,
2013-04-03 17:40:00,59.5,11.8,30.29,NE,49,0.0,1.0,15,0.00,,---,0.00,VWS V14.01,2013-04-03 21:40:00,
2013-04-03 17:45:00,59.3,11.7,30.29,NE,39,0.0,0.0,15,0.00,,---,0.00,VWS V14.01,2013-04-03 21:45:00,
2013-04-03 17:50:00,59.3,15.8,30.29,NE,39,0.0,0.0,18,0.00,,---,0.00,VWS V14.01,2013-04-03 21:50:00,
2013-04-03 17:55:00,59.2,15.7,30.29,NE,41,0.0,0.0,18,0.00,,---,0.00,VWS V14.01,2013-04-03 21:55:00,
2013-04-03 18:00:00,59.2,17.0,30.29,NE,41,0.0,0.0,19,0.00,,---,0.00,VWS V14.01,2013-04-03 22:00:00,
2013-04-03 18:05:00,59.0,11.4,30.29,NE,41,0.0,0.0,15,0.00,,---,0.00,VWS V14.01,2013-04-03 22:05:00,
2013-04-03 18:10:00,58.9,15.5,30.29,NE,41,0.0,0.0,18,0.00,,---,0.00,VWS V14.01,2013-04-03 22:10:00,
2013-04-03 18:15:00,59.0,12.9,30.29,NE,41,0.0,0.0,16,0.00,,---,0.00,VWS V14.01,2013-04-03 22:15:00,
2013-04-03 18:20:00,58.9,16.7,30.29,NE,41,0.0,0.0,19,0.00,,---,0.00,VWS V14.01,2013-04-03 22:20:00,
2013-04-03 18:25:00,58.9,14.2,30.29,NE,41,0.0,0.0,17,0.00,,---,0.00,VWS V14.01,2013-04-03 22:25:00,
2013-04-03 18:30:00,58.7,14.0,30.29,NE,41,0.0,0.0,17,0.00,,---,0.00,VWS V14.01,2013-04-03 22:30:00,
2013-04-03 18:35:00,58.7,15.3,30.29,NE,41,0.0,0.0,18,0.00,,---,0.00,VWS V14.01,2013-04-03 22:35:00,
2013-04-03 18:40:00,58.6,19.9,30.29,NE,41,0.0,0.0,22,0.00,,---,0.00,VWS V14.01,2013-04-03 22:40:00,
2013-04-03 18:45:00,58.4,15.1,30.28,NE,41,0.0,0.0,18,0.00,,---,0.00,VWS V14.01,2013-04-03 22:45:00,
2013-04-03 18:50:00,58.1,19.5,30.28,NE,41,0.0,0.0,22,0.00,,---,0.00,VWS V14.01,2013-04-03 22:50:00,
2013-04-03 18:55:00,58.0,16.0,30.28,NE,41,0.0,0.0,19,0.00,,---,0.00,VWS V14.01,2013-04-03 22:55:00,
2013-04-03 19:00:00,57.8,17.0,30.29,NE,41,0.0,0.0,20,0.00,,---,0.00,VWS V14.01,2013-04-03 23:00:00,
2013-04-03 19:05:00,57.6,16.9,30.29,NE,41,0.0,0.0,20,0.00,,---,0.00,VWS V14.01,2013-04-03 23:05:00,
2013-04-03 19:10:00,57.5,17.9,30.29,NE,41,0.0,0.0,21,0.00,,---,0.00,VWS V14.01,2013-04-03 23:10:00,
2013-04-03 19:15:00,57.2,22.6,30.29,NE,41,0.0,0.0,26,0.00,,---,0.00,VWS V14.01,2013-04-03 23:15:00,
2013-04-03 19:20:00,56.9,16.3,30.29,NE,41,0.0,0.0,20,0.00,,---,0.00,VWS V14.01,2013-04-03 23:20:00,
2013-04-03 19:25:00,56.6,18.2,30.29,NE,41,0.0,0.0,22,0.00,,---,0.00,VWS V14.01,2013-04-03 23:25:00,
2013-04-03 19:30:00,56.3,15.8,30.29,NE,41,0.0,0.0,20,0.00,,---,0.00,VWS V14.01,2013-04-03 23:30:00,
2013-04-03 19:35:00,56.0,16.6,30.29,NE,41,0.0,0.0,21,0.00,,---,0.00,VWS V14.01,2013-04-03 23:35:00,
2013-04-03 19:40:00,55.7,20.4,30.29,NE,41,0.0,0.0,25,0.00,,---,0.00,VWS V14.01,2013-04-03 23:40:00,
2013-04-03 19:45:00,55.4,17.2,30.30,NE,41,0.0,0.0,22,0.00,,---,0.00,VWS V14.01,2013-04-03 23:45:00,
2013-04-03 19:50:00,55.3,18.1,30.30,NE,41,0.0,0.0,23,0.00,,---,0.00,VWS V14.01,2013-04-03 23:50:00,
2013-04-03 19:55:00,55.0,18.9,30.30,NE,41,0.0,0.0,24,0.00,,---,0.00,VWS V14.01,2013-04-03 23:55:00,
2013-04-03 20:00:00,54.5,22.9,30.30,NE,41,0.0,0.0,29,0.00,,---,0.00,VWS V14.01,2013-04-04 00:00:00,
2013-04-03 20:05:00,54.1,24.2,30.30,NE,41,0.0,0.0,31,0.00,,---,0.00,VWS V14.01,2013-04-04 00:05:00,
2013-04-03 20:10:00,53.8,21.5,30.30,NE,41,0.0,0.0,28,0.00,,---,0.00,VWS V14.01,2013-04-04 00:10:00,
2013-04-03 20:15:00,53.6,28.0,30.30,NE,41,0.0,0.0,37,0.00,,---,0.00,VWS V14.01,2013-04-04 00:15:00,
2013-04-03 20:20:00,53.2,28.9,30.30,NE,41,0.0,0.0,39,0.00,,---,0.00,VWS V14.01,2013-04-04 00:20:00,
2013-04-03 20:25:00,52.9,29.2,30.30,NE,41,0.0,0.0,40,0.00,,---,0.00,VWS V14.01,2013-04-04 00:25:00,
2013-04-03 20:30:00,52.5,27.0,30.31,NE,41,0.0,0.0,37,0.00,,---,0.00,VWS V14.01,2013-04-04 00:30:00,
2013-04-03 20:35:00,52.3,28.1,30.31,NE,41,0.0,0.0,39,0.00,,---,0.00,VWS V14.01,2013-04-04 00:35:00,
2013-04-03 20:40:00,52.2,29.8,30.31,NE,41,0.0,0.0,42,0.00,,---,0.00,VWS V14.01,2013-04-04 00:40:00,
2013-04-03 20:45:00,51.9,27.1,30.31,NE,41,0.0,0.0,38,0.00,,---,0.00,VWS V14.01,2013-04-04 00:45:00,
2013-04-03 20:50:00,51.7,28.2,30.31,NE,41,0.0,0.0,40,0.00,,---,0.00,VWS V14.01,2013-04-04 00:50:00,
2013-04-03 20:55:00,51.6,28.7,30.31,NE,41,0.0,0.0,41,0.00,,---,0.00,VWS V14.01,2013-04-04 00:55:00,
2013-04-03 21:00:00,51.4,30.2,30.31,NE,41,0.0,0.0,44,0.00,,---,0.00,VWS V14.01,2013-04-04 01:00:00,
2013-04-03 21:05:00,51.3,30.1,30.31,NE,41,0.0,0.0,44,0.00,,---,0.00,VWS V14.01,2013-04-04 01:05:00,
2013-04-03 21:10:00,51.1,30.5,30.31,NE,41,0.0,0.0,45,0.00,,---,0.00,VWS V14.01,2013-04-04 01:10:00,
2013-04-03 21:15:00,50.8,30.2,30.32,NE,41,0.0,0.0,45,0.00,,---,0.00,VWS V14.01,2013-04-04 01:15:00,
2013-04-03 21:20:00,50.7,30.1,30.32,NE,41,0.0,0.0,45,0.00,,---,0.00,VWS V14.01,2013-04-04 01:20:00,
2013-04-03 21:25:00,50.5,29.4,30.32,NE,41,0.0,0.0,44,0.00,,---,0.00,VWS V14.01,2013-04-04 01:25:00,
2013-04-03 21:30:00,50.4,31.5,30.33,NE,41,0.0,0.0,48,0.00,,---,0.00,VWS V14.01,2013-04-04 01:30:00,
2013-04-03 21:35:00,50.2,31.3,30.33,NE,41,0.0,0.0,48,0.00,,---,0.00,VWS V14.01,2013-04-04 01:35:00,
2013-04-03 21:40:00,50.1,31.7,30.33,NE,41,0.0,0.0,49,0.00,,---,0.00,VWS V14.01,2013-04-04 01:40:00,
2013-04-03 21:45:00,49.8,32.4,30.34,NE,41,0.0,0.0,51,0.00,,---,0.00,VWS V14.01,2013-04-04 01:45:00,
2013-04-03 21:50:00,49.6,34.1,30.34,NE,41,0.0,0.0,55,0.00,,---,0.00,VWS V14.01,2013-04-04 01:50:00,
2013-04-03 21:55:00,49.5,33.6,30.34,NE,41,0.0,0.0,54,0.00,,---,0.00,VWS V14.01,2013-04-04 01:55:00,
2013-04-03 22:00:00,49.2,32.3,30.35,NE,41,0.0,0.0,52,0.00,,---,0.00,VWS V14.01,2013-04-04 02:00:00,
2013-04-03 22:05:00,49.1,33.7,30.35,NE,41,0.0,0.0,55,0.00,,---,0.00,VWS V14.01,2013-04-04 02:05:00,
2013-04-03 22:10:00,49.1,33.2,30.35,NE,41,0.0,0.0,54,0.00,,---,0.00,VWS V14.01,2013-04-04 02:10:00,
2013-04-03 22:15:00,48.9,33.0,30.35,NE,41,0.0,0.0,54,0.00,,---,0.00,VWS V14.01,2013-04-04 02:15:00,
2013-04-03 22:20:00,48.6,31.3,30.35,NE,41,0.0,0.0,51,0.00,,---,0.00,VWS V14.01,2013-04-04 02:20:00,
2013-04-03 22:25:00,48.5,32.6,30.35,NE,41,0.0,0.0,54,0.00,,---,0.00,VWS V14.01,2013-04-04 02:25:00,
2013-04-03 22:30:00,48.3,32.4,30.35,NE,41,0.0,0.0,54,0.00,,---,0.00,VWS V14.01,2013-04-04 02:30:00,
2013-04-03 22:35:00,48.3,32.9,30.35,NE,41,0.0,0.0,55,0.00,,---,0.00,VWS V14.01,2013-04-04 02:35:00,
2013-04-03 22:40:00,48.2,32.8,30.35,NE,41,0.0,0.0,55,0.00,,---,0.00,VWS V14.01,2013-04-04 02:40:00,
2013-04-03 22:45:00,48.0,32.6,30.34,NE,41,0.0,0.0,55,0.00,,---,0.00,VWS V14.01,2013-04-04 02:45:00,
2013-04-03 22:50:00,47.9,32.5,30.34,NE,41,0.0,0.0,55,0.00,,---,0.00,VWS V14.01,2013-04-04 02:50:00,
2013-04-03 22:55:00,47.7,33.7,30.34,NE,41,0.0,0.0,58,0.00,,---,0.00,VWS V14.01,2013-04-04 02:55:00,
2013-04-03 22:59:00,46.2,35.1,30.35,NE,41,0.0,0.0,65,0.00,,---,0.00,VWS V14.01,2013-04-04 02:59:00,
2013-04-03 23:00:00,47.6,33.1,30.35,NE,41,0.0,0.0,57,0.00,,---,0.00,VWS V14.01,2013-04-04 03:00:00,
2013-04-03 23:01:00,46.1,35.4,30.35,NE,41,0.0,0.0,66,0.00,,---,0.00,VWS V14.01,2013-04-04 03:01:00,
2013-04-03 23:02:00,46.1,35.0,30.35,NE,41,0.0,0.0,65,0.00,,---,0.00,VWS V14.01,2013-04-04 03:02:00,
2013-04-03 23:03:00,46.1,35.0,30.35,NE,41,0.0,0.0,65,0.00,,---,0.00,VWS V14.01,2013-04-04 03:03:00,
2013-04-03 23:05:00,47.4,33.4,30.35,NE,41,0.0,0.0,58,0.00,,---,0.00,VWS V14.01,2013-04-04 03:05:00,
2013-04-03 23:10:00,47.3,34.1,30.35,NE,41,0.0,0.0,60,0.00,,---,0.00,VWS V14.01,2013-04-04 03:10:00,
2013-04-03 23:15:00,47.3,35.0,30.34,NE,41,0.0,0.0,62,0.00,,---,0.00,VWS V14.01,2013-04-04 03:15:00,
2013-04-03 23:20:00,47.1,35.6,30.34,NE,41,0.0,0.0,64,0.00,,---,0.00,VWS V14.01,2013-04-04 03:20:00,
2013-04-03 23:25:00,47.1,35.6,30.34,NE,41,0.0,0.0,64,0.00,,---,0.00,VWS V14.01,2013-04-04 03:25:00,
2013-04-03 23:30:00,47.0,34.7,30.34,NE,41,0.0,0.0,62,0.00,,---,0.00,VWS V14.01,2013-04-04 03:30:00,
2013-04-03 23:35:00,46.8,34.5,30.34,NE,41,0.0,0.0,62,0.00,,---,0.00,VWS V14.01,2013-04-04 03:35:00,
2013-04-03 23:40:00,46.8,34.9,30.34,NE,41,0.0,0.0,63,0.00,,---,0.00,VWS V14.01,2013-04-04 03:40:00,
2013-04-03 23:45:00,46.7,35.2,30.34,NE,41,0.0,0.0,64,0.00,,---,0.00,VWS V14.01,2013-04-04 03:45:00,
2013-04-03 23:50:00,46.5,35.4,30.34,NE,41,0.0,0.0,65,0.00,,---,0.00,VWS V14.01,2013-04-04 03:50:00,
2013-04-03 23:55:00,46.4,34.9,30.34,NE,41,0.0,0.0,64,0.00,,---,0.00,VWS V14.01,2013-04-04 03:55:00,